Skip Page Navigation
NASA JPL Caltech
NASA Logo - Jet Propulsion Laboratory + View the NASA Portal
+ Center for Near-Earth Object Studies
JPL Home Earth Solar System Stars & Galaxies Technology
JPL Solar System Dynamics
BODIES ORBITS EPHEMERIDES TOOLS PHYSICAL DATA DISCOVERY FAQ SITE MAP
IMPORTANT: The SSD Announcement email list is now available. Major changes are coming in the near future, including possible hostname and/or URL changes. To be notified of such changes, subscribe to this email list.

Please visit this page for more details.


JPL Small-Body Database Browser
Search: [ help ]  
413745 (2006 BS270)
Classification: Main-belt Asteroid          SPK-ID: 2413745
Ephemeris | Orbit Diagram | Orbital Elements | Mission Design | Physical Parameters | Discovery Circumstances | Close-Approach Data ]

[ show orbit diagram ]
Orbital Elements at Epoch 2458600.5 (2019-Apr-27.0) TDB
Reference: JPL 18 (heliocentric ecliptic J2000)
 Element Value Uncertainty (1-sigma)   Units 
e .2041986572947633 1.004e-07  
a 2.752080780122484 4.7763e-08 au
q 2.190109580054748 2.9216e-07 au
i 8.888287642658748 1.0195e-05 deg
node 301.264221113152 3.8614e-05 deg
peri 234.3656905844948 4.4409e-05 deg
M 309.9900560479933 2.5357e-05 deg
tp 2458832.156270328223
(2019-Dec-14.65627033)
0.00012193 TDB
period 1667.593496969191
4.57
4.3412e-05
1.189e-07
d
yr
n .2158799495526283 5.62e-09 deg/d
Q 3.314051980190221 5.7516e-08 au
  Orbit Determination Parameters
   # obs. used (total)      209  
   data-arc span      4724 days (12.93 yr)  
   first obs. used      2006-01-31  
   last obs. used      2019-01-07  
   planetary ephem.      DE431  
   SB-pert. ephem.      SB431-N16  
   condition code      0  
   norm. resid. RMS      .56582  
   source      ORB  
   producer      Otto Matic  
   solution date      2019-Jul-14 15:51:07  

Additional Information
 Earth MOID = 1.20991 au 
 Jupiter MOID = 1.75541 au 
 T_jup = 3.297 
[ show covariance matrix ]

Ephemeris | Orbit Diagram | Orbital Elements | Mission Design | Physical Parameters | Discovery Circumstances | Close-Approach Data ]

Physical Parameter Table
Parameter Symbol Value Units Sigma Reference Notes
absolute magnitude H 16.5   n/a MPO419033  

413745 (2006 BS270)          Discovered 2006-Jan-31 by LONEOS at Anderson Mesa
Reference: Last Updated: 2014-11-10

[ show close-approach data ]
Alternate Designations
 2006 BS270 = 2007 RX275 
Ephemeris | Orbit Diagram | Orbital Elements | Mission Design | Physical Parameters | Discovery Circumstances | Close-Approach Data ]
ABOUT SSD CREDITS/AWARDS PRIVACY/COPYRIGHT GLOSSARY LINKS
FirstGov 2019-Dec-16 02:29 UT
(server date/time)  
NASA Home Page
Site Manager:   Ryan S. Park
Webmaster  Alan B. Chamberlin